Weather WX

World > North America > United States > New York

Saint James, New York Regional Weather

Lat: 40.88N, Lon: 73.16W
Wx Zone: NYZ078
Warning FLW WEATHER ALERT - (More Info. Click Here) Warning
Feedback

Saint James, NY Regional Weather

Expires:201906181100;;674707
ASUS41 KOKX 181013
RWROKX

Regional Weather Roundup
National Weather Service New York NY
600 AM EDT TUE JUN 18 2019

Note: "FAIR" indicates few or no clouds below 12,000 feet with no
significant weather and/or obstructions to visibility.


NYZ177-179-078>081-181100-
Long Island New York
  
CITY           SKY/WX    TMP DP  RH WIND       PRES   REMARKS
Jones Beach      N/A     64 N/A N/A S2          N/A                   
Wantagh          N/A     66  66 100 SE3         N/A                   
Hempstead        N/A     66  66 100 SE1       30.01R                  
Matinecock Pt    N/A     66 N/A N/A NE2         N/A                   
Farmingdale    FOG       67  66  97 SE3       29.96S VSB 1            
MacArthur/ISP  FOG       67  67 100 SE5       29.96S VSB 1/4          
Stony Brook      N/A     66  66 100 SE1         N/A                   
Shirley        FOG       66  65  96 CALM      29.97R VSB 3/4          
Mt Sinai Harb    N/A    N/A N/A N/A MISG        N/A                   
Westhampton    FOG       65  64  97 CALM      29.98S VSB 3/4          
East Hampton   CLOUDY    63  62  97 CALM      29.97S FOG              
Southold         N/A     66  64  94 S2          N/A                   
Montauk          N/A     64  62  93 CALM      29.98S                  
$$
 

SKY/WX - Weather  TMP - Temperature  DP - Dew Point  RH - Relative Humidity
WIND - Wind Direction/Speed PRES - Barometric Pressure VSB - Visibility
WCI - Wind Chill Index E13G22 Wind - East Wind 13 mph/Gusts of 22 mph